#timestamp,LO_Frequency,Hit,StdDev 
1684850415.4,286047003.4,N
1684850435.3,286047003.4,N
1684850455.1,286047004.0,N
1684850475.8,286047004.1,N
1684850495.7,286047004.3,Y
1684850515.5,286047002.5,P
1684850535.4,286046999.8,N
1684850555.2,286046998.6,N
1684850575.0,286047001.0,N
1684850575.9,286047001.0,N
1684850595.8,286047000.0,N
1684850615.6,286047000.4,N
1684850635.4,286046999.9,N
1684850655.3,286047000.2,N
1684850675.1,286047002.4,N
1684850695.9,286046999.8,N
1684850715.7,286047000.8,N
1684850735.5,286046999.3,N
1684850755.4,286046998.4,N
1684850775.2,286046999.3,N
1684850795.0,286046996.9,N
1684850796.0,286046996.9,N
1684850815.8,286046999.1,N
1684850835.6,286046998.2,N
1684850855.5,286047001.2,N
1684850875.3,286046999.9,N
1684850895.1,286047000.8,N
1684850915.9,286047000.2,N
1684850935.7,286047000.2,N
1684850955.5,286047000.0,N
1684850975.4,286047001.7,N
1684850995.2,286047002.5,N
1684851015.1,286047000.3,N
1684851016.0,286047000.3,N
1684851035.8,286046999.7,N
1684851055.6,286047001.4,N
1684851075.5,286047007.2,Y
1684851095.3,286047003.0,P
1684851115.1,286047003.1,N
1684851135.9,286047004.1,N
1684851155.7,286047002.0,N
1684851175.6,286047002.1,N
1684851195.4,286047001.6,N
1684851215.2,286047002.3,N
1684851235.1,286047000.2,N
1684851236.0,286047000.2,N
1684851255.8,286047000.5,N
1684851275.6,286047000.2,N
1684851295.5,286047002.0,N
1684851315.3,286047002.0,N
1684851335.2,286047001.6,N
1684851355.9,286047003.9,Y
1684851375.7,286047002.5,P
1684851395.6,286047002.0,P
1684851415.4,286047002.2,P
1684851435.2,286047002.7,Y
1684851455.1,286046998.1,P
1684851456.0,286046998.1,N
1684851475.8,286046998.1,N
1684851495.7,286046998.5,N
1684851515.5,286046999.4,N
1684851535.3,286046999.3,N
1684851555.2,286046998.7,N
1684851575.0,286046996.6,N
1684851575.9,286046996.6,N
1684851595.7,286046998.9,N
1684851615.6,286046998.5,N
1684851635.4,286046999.8,N
1684851655.3,286047002.8,N
1684851675.1,286047000.1,N
1684851676.0,286047000.1,N
1684851695.8,286047000.9,N
1684851715.7,286046998.6,N
1684851735.5,286047000.8,N
1684851755.3,286047001.1,N
1684851775.2,286047000.8,N
1684851795.0,286046998.1,N
1684851795.9,286046998.1,N
1684851815.8,286046998.2,N
1684851835.6,286046999.3,N
1684851855.4,286047000.9,N
1684851875.3,286046998.5,N
1684851895.1,286046996.8,N
1684851896.0,286046996.8,N
1684851915.8,286046996.8,N
1684851935.7,286046997.3,N
1684851955.5,286046996.6,N
1684851975.3,286046996.5,N
1684851995.2,286046996.5,N
1684852015.0,286046998.6,N
1684852015.9,286046998.6,N
1684852035.8,286046998.4,N
1684852055.6,286046996.7,N
1684852075.4,286046997.6,N
1684852095.3,286046995.5,N
1684852115.1,286046995.2,N
1684852135.8,286046996.3,N
1684852155.7,286046993.5,Y
1684852175.5,286046997.5,P
1684852195.4,286046996.8,P
1684852215.2,286046997.1,P
1684852235.0,286046995.1,Y
1684852235.9,286046995.1,P
1684852255.8,286046999.0,N
1684852275.6,286046998.2,N
1684852295.4,286046999.3,N
1684852315.3,286046998.9,N
1684852335.1,286046999.2,N
1684852355.9,286046998.2,N
1684852375.7,286046998.9,N
1684852395.5,286046999.2,N
1684852415.4,286046999.1,N
1684852435.2,286046998.2,N
1684852455.0,286046999.2,N
1684852455.9,286046999.2,N
1684852475.8,286047000.5,N
1684852495.6,286047000.8,N
1684852515.5,286046998.4,N
1684852535.3,286046998.6,N
1684852555.1,286047000.9,N
1684852575.9,286046998.3,N
1684852595.7,286046999.0,N
1684852615.5,286046999.5,N
1684852635.4,286046999.1,N
1684852655.2,286046996.5,Y
1684852705.1,286046998.1,E
1684852715.9,286047000.5,N
1684852735.7,286047000.3,P
1684852755.6,286047000.2,N
1684852775.4,286047000.2,N
1684852795.3,286047002.6,Y
1684852815.1,286047000.9,P
1684852816.0,286047000.9,N
1684852835.8,286047001.9,P
1684852855.7,286047001.6,N
1684852875.5,286047003.0,Y
1684852895.3,286047003.9,P
1684852915.2,286047001.3,N
1684852935.0,286047003.7,N
1684852935.9,286047003.7,N
1684852955.8,286047002.9,N
1684852975.6,286047003.5,Y
1684852995.4,286046999.9,P
1684853015.3,286047001.0,N
1684853035.1,286046998.1,N
1684853055.9,286046998.7,N
1684853075.7,286046998.1,N
1684853095.5,286047000.4,N
1684853115.4,286046998.4,N
1684853135.2,286046998.6,N
1684853155.0,286046998.9,N
1684853155.9,286046998.9,N
1684853175.8,286046998.3,N
1684853195.6,286047001.0,N
1684853215.5,286047000.0,N
1684853235.3,286047001.0,N
1684853255.1,286046999.4,N
1684853275.9,286046999.6,N
1684853295.7,286046998.9,N
1684853315.6,286046998.7,N
1684853335.4,286046999.6,N
1684853355.2,286046996.8,N
1684853375.1,286046998.9,N
1684853376.0,286046998.9,N
1684853395.8,286046999.1,N
1684853415.6,286046999.0,N
1684853435.5,286046998.6,N
1684853455.3,286046998.2,N
1684853475.2,286047001.1,N
1684853495.9,286047000.8,N
1684853515.7,286046998.5,N
1684853535.6,286047001.0,N
1684853555.4,286047000.6,N
1684853575.2,286046999.8,N
1684853595.1,286047002.8,N
1684853596.0,286047002.8,N
1684853615.8,286047002.3,N
1684853635.7,286046999.7,N
1684853655.5,286047002.3,N
1684853675.3,286047000.2,N
1684853695.2,286047002.3,N
1684853715.0,286046999.8,N
1684853715.9,286046999.8,N
1684853735.7,286046998.1,N
1684853755.6,286047000.0,N
1684853775.4,286047001.2,N
1684853795.3,286046998.6,N
1684853815.1,286047000.3,N
1684853816.0,286047000.3,N
1684853835.8,286046998.1,N
1684853855.7,286046998.7,N
1684853875.5,286046998.4,N
1684853895.3,286046996.6,N
1684853915.2,286046997.0,N
1684853935.0,286046995.9,N
1684853935.9,286046995.9,N
1684853955.8,286046995.0,N
1684853975.6,286046997.1,N
1684853995.4,286046998.6,N
